• MPC Preparation (Info)

  • MPEC 2000-Q14 : 2000 PQ27

    The following Minor Planet Electronic Circular may be linked-to from your own Web pages, but must not otherwise be redistributed electronically.

    A form allowing access to any MPEC is at the bottom of this page.


    Read MPEC 2000-Q13 Read MPEC 2000-Q15


    M.P.E.C. 2000-Q14                                Issued 2000 Aug. 21, 11:31 UT
    
         The Minor Planet Electronic Circulars contain information on unusual
             minor planets and routine data on comets.  They are published
       on behalf of Commission 20 of the International Astronomical Union by the
              Minor Planet Center, Smithsonian Astrophysical Observatory,
                              Cambridge, MA 02138, U.S.A.
    
                 Prepared using the Tamkin Foundation Computer Network
    
                 BMARSDEN@CFA.HARVARD.EDU or GWILLIAMS@CFA.HARVARD.EDU
              URL http://cfa-www.harvard.edu/iau/mpc.html  ISSN 1523-6714
    
                                       2000 PQ27
    
    Observations:
         K00P27Q* C2000 08 09.36007 22 21 27.61 -10 10 31.4          19.6 V      691
         K00P27Q  C2000 08 09.38936 22 21 27.12 -10 09 58.3          20.3 V      691
         K00P27Q  C2000 08 09.42010 22 21 26.58 -10 09 24.0          20.4 V      691
         K00P27Q  C2000 08 09.99038 22 21 21.48 -09 58 53.2                      557
         K00P27Q  C2000 08 09.99358 22 21 21.45 -09 58 49.3                      557
         K00P27Q  C2000 08 09.99590 22 21 21.42 -09 58 47.0          19.8 V      557
         K00P27Q 1C2000 08 11.68814 22 21 00.76 -09 26 21.2                      413
         K00P27Q 1C2000 08 11.69105 22 21 00.73 -09 26 17.9                      413
         K00P27Q 4C2000 08 13.35628 22 20 36.84 -08 54 26.2                      673
         K00P27Q 4C2000 08 13.36288 22 20 36.68 -08 54 18.6                      673
         K00P27Q 4C2000 08 13.36821 22 20 36.53 -08 54 12.2                      673
         K00P27Q  C2000 08 20.27165 22 18 12.33 -06 32 10.0          19.1 V      691
         K00P27Q  C2000 08 20.27925 22 18 12.06 -06 32 00.2          19.0 V      691
         K00P27Q  C2000 08 20.28674 22 18 11.81 -06 31 50.7          19.0 V      691
         K00P27Q  C2000 08 20.85652 22 17 57.68 -06 19 38.2          18.2 R      046
         K00P27Q  C2000 08 20.85876 22 17 57.54 -06 19 35.3                      046
         K00P27Q  C2000 08 20.86058 22 17 57.48 -06 19 33.0                      046
         K00P27Q  C2000 08 20.86228 22 17 57.43 -06 19 31.3                      046
         K00P27Q  C2000 08 20.86407 22 17 57.34 -06 19 28.7          18.1 R      046
         K00P27Q  C2000 08 20.98247 22 17 53.51 -06 16 55.3          18.5 R      118
         K00P27Q  C2000 08 20.98834 22 17 53.29 -06 16 46.3                      118
         K00P27Q  C2000 08 20.99214 22 17 53.14 -06 16 42.3                      118
    
    Observer details:
    046 Klet.  Observers J. Ticha, M. Tichy.  0.57-m f/5.2 reflector + CCD.
    118 Modra.  Observers D. Kalmancok, J. Toth.  0.6-m f/5.5 reflector + CCD.
    413 Siding Spring.  Observer R. H. McNaught.  1.0-m f/8 reflector + CCD.
    557 Ondrejov.  Observer L. Sarounova.  0.65-m f/3.6 reflector + CCD.
    673 Table Mountain Observatory, Wrightwood.   Observers J. Foster,
        L. Kuang.  Measurer M. Hicks.  0.6-m reflector + CCD.
    691 Steward Observatory, Kitt Peak.  J. V. Scotti, M. T. Read.  0.9-m
        Spacewatch telescope.
    
    Orbital elements:
    2000 PQ27
    Epoch 2000 Aug. 4.0 TT = JDT 2451760.5                  Spahr
    M 341.17281              (2000.0)            P               Q
    n   0.29754352     Peri.   44.04591     +0.99174570     -0.10107707
    a   2.2221279      Node   321.54734     +0.05030332     +0.87266923
    e   0.4205318      Incl.    7.28832     +0.11794081     +0.47773617
    P   3.31           H   20.4           G   0.15
    From 22 observations 2000 Aug. 9-20.
    
    Ephemeris:
    2000 PQ27                a,e,i = 2.22, 0.42, 7                   q = 1.2877
    Date    TT    R. A. (2000) Decl.     Delta      r     Elong.  Phase     V
    2000 08 14    22 20.44   -08 41.5    0.381    1.387   167.6     9.0    19.6
    2000 08 24    22 16.52   -05 10.4    0.345    1.355   174.0     4.5    19.1
    2000 09 03    22 11.71   -01 21.1    0.324    1.328   168.8     8.5    19.2
    2000 09 13    22 08.43   +02 29.9    0.316    1.308   159.8    15.4    19.3
    2000 09 23    22 08.81   +06 05.2    0.321    1.294   151.4    21.8    19.5
    2000 10 03    22 14.22   +09 12.7    0.336    1.288   144.2    27.1    19.8
    2000 10 13    22 25.11   +11 50.0    0.360    1.289   138.3    31.0    20.1
    2000 10 23    22 40.89   +13 59.5    0.394    1.298   133.6    33.7    20.3
    2000 11 02    23 00.65   +15 46.0    0.436    1.314   129.7    35.5    20.6
    2000 11 12    23 23.39   +17 15.7    0.487    1.337   126.2    36.7    21.0
    2000 11 22    23 48.01   +18 32.7    0.548    1.365   122.9    37.4    21.3
    2000 12 02    00 13.75   +19 40.9    0.619    1.399   119.6    37.8    21.6
    2000 12 12    00 40.02   +20 43.4    0.700    1.438   116.2    37.9    21.9
    
    Timothy B. Spahr             (C) Copyright 2000 MPC           M.P.E.C. 2000-Q14
    

    Read MPEC 2000-Q13 Read MPEC 2000-Q15


    MPEC number:

    Enter an MPEC number in one of the following forms:

    • 1997-B01 (the full form)
    • J97B01 (the packed version of the full form)
    • B01 (the abbreviated form)